TimeEST,TemperatureF,Dew PointF,Humidity,Sea Level PressureIn,VisibilityMPH,Wind Direction,Wind SpeedMPH,Gust SpeedMPH,PrecipitationIn,Events,Conditions,WindDirDegrees,DateUTC
12:51 AM,16.0,5.0,62,30.32,10.0,Calm,Calm,-,N/A,,Clear,0,2013-02-11 05:51:00
1:51 AM,17.1,3.9,56,30.29,10.0,NNW,3.5,-,N/A,,Clear,340,2013-02-11 06:51:00
2:51 AM,14.0,3.9,64,30.27,10.0,NW,5.8,-,N/A,,Clear,320,2013-02-11 07:51:00
3:51 AM,12.0,3.9,70,30.26,10.0,NW,4.6,-,N/A,,Clear,320,2013-02-11 08:51:00
4:51 AM,14.0,5.0,67,30.23,10.0,NNW,3.5,-,N/A,,Clear,330,2013-02-11 09:51:00
5:51 AM,15.1,5.0,64,30.22,10.0,NW,3.5,-,N/A,,Clear,320,2013-02-11 10:51:00
6:51 AM,16.0,7.0,68,30.21,10.0,Calm,Calm,-,N/A,,Scattered Clouds,0,2013-02-11 11:51:00
7:51 AM,19.0,7.0,59,30.18,10.0,Calm,Calm,-,N/A,,Mostly Cloudy,0,2013-02-11 12:51:00
8:42 AM,19.4,10.4,68,30.16,2.0,Calm,Calm,-,0.00,Snow,Light Snow,0,2013-02-11 13:42:00
8:48 AM,19.4,10.4,68,30.15,3.0,Calm,Calm,-,0.00,Snow,Light Snow,0,2013-02-11 13:48:00
8:51 AM,19.9,12.0,71,30.16,4.0,Calm,Calm,-,0.00,Snow,Light Snow,0,2013-02-11 13:51:00
9:07 AM,19.4,12.2,74,30.14,2.0,Calm,Calm,-,0.00,Snow,Light Snow,0,2013-02-11 14:07:00
9:15 AM,19.4,12.2,74,30.14,0.8,Calm,Calm,-,0.00,Snow,Light Snow,0,2013-02-11 14:15:00
9:40 AM,19.4,14.0,80,30.11,0.2,Calm,Calm,-,0.03,Snow,Heavy Snow,0,2013-02-11 14:40:00
9:51 AM,19.0,15.1,85,30.11,0.8,Calm,Calm,-,0.04,Snow,Light Snow,0,2013-02-11 14:51:00
10:36 AM,19.4,17.6,93,30.07,0.8,NNW,4.6,-,0.04,Snow,Light Snow,330,2013-02-11 15:36:00
10:51 AM,21.0,17.1,85,30.07,0.5,Calm,Calm,-,0.07,Fog-Snow,Snow,0,2013-02-11 15:51:00
11:10 AM,21.2,17.6,86,30.03,0.5,Calm,Calm,-,0.02,Fog-Snow,Snow,0,2013-02-11 16:10:00
11:37 AM,21.2,19.4,93,30.01,0.5,North,3.5,-,0.06,Fog-Snow,Snow,360,2013-02-11 16:37:00
11:51 AM,21.9,19.0,89,29.99,0.5,Calm,Calm,-,0.08,Fog-Snow,Snow,0,2013-02-11 16:51:00
12:06 PM,23.0,19.4,86,29.96,1.5,North,3.5,-,0.01,Snow,Light Snow,10,2013-02-11 17:06:00
12:15 PM,24.8,21.2,86,29.95,1.8,North,3.5,-,0.02,,Overcast,10,2013-02-11 17:15:00
12:48 PM,26.6,24.8,93,29.90,1.2,Calm,Calm,-,0.05,Rain,Light Freezing Rain,0,2013-02-11 17:48:00
12:51 PM,28.0,25.0,88,29.91,1.2,Calm,Calm,-,0.05,Rain,Light Freezing Rain,0,2013-02-11 17:51:00
1:13 PM,28.4,26.6,93,29.86,1.2,Calm,Calm,-,0.03,Rain,Light Freezing Rain,0,2013-02-11 18:13:00
1:24 PM,30.2,28.4,93,29.84,1.5,Calm,Calm,-,0.05,Rain,Light Freezing Rain,0,2013-02-11 18:24:00
1:51 PM,33.1,30.9,92,29.83,0.8,Calm,Calm,-,0.07,,Overcast,0,2013-02-11 18:51:00
2:28 PM,32.0,30.2,93,29.80,1.0,NW,6.9,-,0.00,Rain,Light Freezing Rain,320,2013-02-11 19:28:00
2:51 PM,30.9,30.0,96,29.81,1.2,NW,8.1,-,0.01,Rain,Light Freezing Rain,310,2013-02-11 19:51:00
3:33 PM,32.0,30.2,93,29.77,1.2,NNW,4.6,-,0.01,Rain,Light Freezing Rain,330,2013-02-11 20:33:00
3:51 PM,32.0,30.9,96,29.77,1.2,NW,3.5,-,0.02,,Overcast,310,2013-02-11 20:51:00
4:03 PM,33.8,32.0,93,29.74,2.0,Calm,Calm,-,0.00,Rain,Light Rain,0,2013-02-11 21:03:00
4:12 PM,33.8,30.2,87,29.74,1.2,NW,3.5,-,0.00,Rain,Light Rain,320,2013-02-11 21:12:00
4:23 PM,33.8,30.2,87,29.73,2.0,Calm,Calm,-,0.00,,Overcast,0,2013-02-11 21:23:00
4:31 PM,33.8,30.2,87,29.72,1.2,North,3.5,-,0.00,,Overcast,350,2013-02-11 21:31:00
4:51 PM,33.1,32.0,96,29.70,0.8,Calm,Calm,-,0.00,,Overcast,0,2013-02-11 21:51:00
5:46 PM,33.8,32.0,93,29.69,1.5,NNW,3.5,-,N/A,,Overcast,340,2013-02-11 22:46:00
5:51 PM,33.1,32.0,96,29.70,1.5,NNW,3.5,-,N/A,,Overcast,340,2013-02-11 22:51:00
6:40 PM,33.8,32.0,93,29.68,1.8,NNW,3.5,-,N/A,,Overcast,330,2013-02-11 23:40:00
6:51 PM,33.1,32.0,96,29.68,1.5,Calm,Calm,-,N/A,,Overcast,0,2013-02-11 23:51:00
7:01 PM,33.8,30.2,87,29.67,1.8,Calm,Calm,-,N/A,,Overcast,0,2013-02-12 00:01:00
7:08 PM,33.8,30.2,87,29.67,2.0,Calm,Calm,-,N/A,,Overcast,0,2013-02-12 00:08:00
7:39 PM,33.8,30.2,87,29.66,1.5,Calm,Calm,-,N/A,,Overcast,0,2013-02-12 00:39:00
7:51 PM,33.1,32.0,96,29.65,0.8,Calm,Calm,-,N/A,,Overcast,0,2013-02-12 00:51:00
8:05 PM,33.8,32.0,93,29.64,1.0,Calm,Calm,-,N/A,,Overcast,0,2013-02-12 01:05:00
8:51 PM,33.1,30.9,92,29.63,2.5,Calm,Calm,-,N/A,,Overcast,0,2013-02-12 01:51:00
9:02 PM,33.8,32.0,93,29.62,3.0,Calm,Calm,-,N/A,,Overcast,0,2013-02-12 02:02:00
9:14 PM,33.8,32.0,93,29.61,2.5,Calm,Calm,-,N/A,,Overcast,0,2013-02-12 02:14:00
9:51 PM,33.1,32.0,96,29.62,3.0,Calm,Calm,-,N/A,,Overcast,0,2013-02-12 02:51:00
10:51 PM,33.1,32.0,96,29.60,2.5,NW,3.5,-,N/A,,Overcast,320,2013-02-12 03:51:00
11:22 PM,33.8,32.0,93,29.58,4.0,Calm,Calm,-,N/A,,Overcast,0,2013-02-12 04:22:00
11:34 PM,33.8,30.2,87,29.58,2.0,Calm,Calm,-,N/A,,Overcast,0,2013-02-12 04:34:00
11:44 PM,33.8,32.0,93,29.58,3.0,Calm,Calm,-,N/A,,Overcast,0,2013-02-12 04:44:00
11:51 PM,33.1,32.0,96,29.58,4.0,Calm,Calm,-,N/A,,Overcast,0,2013-02-12 04:51:00
11:59 PM,33.8,32.0,93,29.57,2.0,West,3.5,-,N/A,,Overcast,260,2013-02-12 04:59:00